Regional Weather Roundup
Issued by NWS

Home | Current Version | Previous Version | Text Only | Print | Product List | Glossary Off
Versions: 1 2 3 4 5 6 7 8 9 10 11 12 13 14 15 16 17 18 19 20 21 22 23 24 25 26 27 28 29 30 31 32 33 34 35 36 37 38 39 40 41 42 43 44 45 46 47 48 49 50

000
ASUS43 KMKX 290100
RWRWI

WISCONSIN REGIONAL WEATHER ROUNDUP
NATIONAL WEATHER SERVICE MILWAUKEE/SULLIVAN WI
800 PM CDT SAT MAY 28 2016

NOTE: "FAIR" INDICATES FEW OR NO CLOUDS BELOW 12,000 FEET WITH NO
SIGNIFICANT WEATHER AND/OR OBSTRUCTIONS TO VISIBILITY.

WIZ001-002-006>008-014>016-023>028-290200-
NORTHWEST WISCONSIN

CITY           SKY/WX    TMP DP  RH WIND       PRES   REMARKS
SUPERIOR ARPT  CLOUDY    51  51 100 CALM      29.82R
ASHLAND        LGT RAIN  58  56  93 CALM      29.82R
HAYWARD        LGT RAIN  63  59  87 NE7       29.79F
SIREN          CLOUDY    63  61  93 NE6       29.79R
CUMBERLAND     CLOUDY    63  61  94 NE8       29.79R
RICE LAKE      CLOUDY    62  58  87 CALM      29.81R
CHETEK         LGT RAIN  62  62  99 N6        29.78R
LADYSMITH      RAIN      71  64  80 CALM      29.79S
EAU CLAIRE     NOT AVBL
MENOMONIE      CLOUDY    65  64  97 SE6       29.79R
NEW RICHMOND   CLOUDY    65  63  94 NW5       29.79R
OSCEOLA        CLOUDY    64  64 100 N3        29.81R
$$

WIZ003>005-009-010-017-018-290200-
NORTH CENTRAL WISCONSIN

CITY           SKY/WX    TMP DP  RH WIND       PRES   REMARKS
MANITOWISH WTR NOT AVBL
ARBOR VITAE    PTCLDY    69  66  89 CALM      29.82S
WOODRUFF       PTCLDY    69  66  89 CALM      29.82S
RHINELANDER    CLOUDY    72  62  71 CALM      29.82S
EAGLE RIVER      N/A     69  63  81 CALM      29.83R
LAND O LAKES   MOCLDY    67  65  93 SW5       29.84R
PHILLIPS       CLOUDY    70  64  81 CALM      29.80R
TOMAHAWK       CLOUDY    71  62  73 CALM      29.82S
MEDFORD        PTCLDY    71  64  78 CALM      29.79S
MERRILL        CLOUDY    72  64  78 CALM      29.81S
$$

WIZ029-030-035-036-043>047-290200-
CENTRAL WISCONSIN

CITY           SKY/WX    TMP DP  RH WIND       PRES   REMARKS
WAUSAU         CLOUDY    74  61  63 CALM      29.78F
MOSINEE        MOCLDY    70  64  83 CALM      29.82R
MARSHFIELD     CLOUDY    72  61  68 S10       29.79S
STEVENS POINT  LGT RAIN  70  63  80 SE3       29.81S
WAUPACA        CLOUDY    77  63  62 SE5       29.79F
WAUTOMA        LGT RAIN  68  64  87 S5        29.82R
WISC RAPIDS    CLOUDY    69  64  84 SW3       29.81S
CAMP DOUGLAS   NOT AVBL
$$

WIZ011>013-019>022-031-037>040-048>050-290200-
NORTHEAST WISCONSIN

CITY           SKY/WX    TMP DP  RH WIND       PRES   REMARKS
ANTIGO         PTCLDY    70  62  76 CALM      29.83S
SHAWANO        CLEAR     78  63  59 CALM      29.81R HX  80
OCONTO         CLEAR     72  67  84 S8        29.81S
STURGEON BAY   NOT AVBL
GREEN BAY      CLEAR     75  66  73 SE14      29.83R
MANITOWOC      NOT AVBL
APPLETON       MOCLDY    73  61  64 SE8       29.80S
CLINTONVILLE   PTCLDY    73  61  64 S6        29.80S
OSHKOSH        TSTM      64  59  83 SW16G23   29.86R
$$

WIZ032>034-041-042-053>061-290200-
SOUTHWEST WISCONSIN

CITY           SKY/WX    TMP DP  RH WIND       PRES   REMARKS
LA CROSSE      MOCLDY    71  63  75 S12       29.77S
SPARTA         CLOUDY    69  64  86 S6        29.80S
VIROQUA        PTCLDY    69  64  83 S12       29.82R
BOSCOBEL       CLOUDY    71  66  84 SW3       29.81S
PRAIRIE DU CHI CLEAR     71  60  68 SW7       29.80S
PLATTEVILLE    CLOUDY    71  68  89 SW7       29.84R
$$

WIZ056-057-062-063-064-067-068-290200-
SOUTH CENTRAL WISCONSIN

CITY           SKY/WX    TMP DP  RH WIND       PRES   REMARKS
REEDSBURG      CLOUDY    69  64  84 CALM      29.82F
BARABOO/DELLS  CLOUDY    66  61  83 S6        29.82F
LONE ROCK      MOCLDY    70  64  83 SE5       29.83R
MINERAL POINT  CLOUDY    68  66  94 SW6       29.85R
MADISON        CLOUDY    68  64  87 S8        29.84R
MIDDLETON      CLOUDY    66  63  92 CALM      29.85S
WATERTOWN      CLOUDY    78  64  61 W18       29.85R HX  80
MONROE         CLOUDY    68  61  77 S12       29.86R
JANESVILLE     MOCLDY    64  63  94 W8        29.88S
$$

WIZ051-052-058>065-066-070>072-290200-
SOUTHEAST WISCONSIN

CITY           SKY/WX    TMP DP  RH WIND       PRES   REMARKS
MILWAUKEE      PTCLDY    74  62  66 SE12      29.86S
WAUKESHA       PTCLDY    75  63  64 SE9G18    29.86S
MILWAUKEE/TIMM CLEAR     79  61  53 MISG      29.86S HX  80
RACINE         CLEAR     68  58  70 S12       29.88F
BURLINGTON     PTCLDY    77  63  61 S6        29.85F
KENOSHA        PTCLDY    79  64  60 S16       29.87S HX  81
FOND DU LAC    LGT RAIN  68  60  75 W10G25    29.88R
SHEBOYGAN      CLEAR     69  60  73 S9        29.86S
WEST BEND      CLEAR     77  61  57 S6        29.85S
JUNEAU         CLOUDY    71  59  66 SW18      29.87R
$$

LSZ147-162-290200-
LAKE SUPERIOR

STATION/POSITION TIME  TEMP    WIND        PRES    WAVE
                       AIR SEA DIR/SP/G            HT/PER
                 (UTC) (F)     (DEG/KT/KT) (MB)    (FT/S)
W MID LAKE BUOY  2350   40 38  230/  2/  2 1009.7R   1/ 4
DEVILS ISLAND    0000   45     310/  5/  5 1010.0R
PORT WING        0000   46     310/  1/  2 1010.2R
SAXON HARBOR     0000   52     180/  3/  6 1009.1S
$$

LMZ867-665-643>646-290200-
LAKE MICHIGAN

STATION/POSITION TIME  TEMP    WIND        PRES    WAVE
                       AIR SEA DIR/SP/G            HT/PER
                 (UTC) (F)     (DEG/KT/KT) (MB)    (FT/S)
CHAMBERS ISLAND  0000   71     150/  7/ 15 1010.2
N MID LAKE BUOY  2350   54 47  190/ 16/ 17 1010.9R   4/ 6
NORTHPORT PIER   0000   63     150/  9/ 16 1010.8R
SISTER BAY       0005   71     180/ 19/ 23   N/A
ALGOMA LAKESHORE 0002          220/ 11/ 13   N/A
KEWAUNEE LAKESHO 0000          180/ 12/ 14   N/A
SHEBOYGAN LAKESH 0000   59     180/ 20/ 20 1011.5R
PORT WASHINGTON  0000   59     190/  6/  9 1012.2R
S MID LAKE BUOY  2350   58 50  140/ 10/ 12 1012.2R   1/ 4
KENOSHA   LAKESH 0000   60     170/ 10/ 12 1011.5S
$$

TC  - TEMPERATURE IN CELSIUS
VSB - VISIBILITY IN STATUTE MILES
WCI - WIND CHILL INDEX
HX  - HEAT INDEX





USA.gov is the U.S. government's official web portal to all federal, state and local government web resources and services.